Location: Sortland
(68.7020°N, 15.4240°E)
Time: 13:58:11
(UTC+01:00)

Envisat - Pass Details

Date: 21 October 2019
Orbit: 764 x 766 km, 98.1° (Epoch: 21 November)

Event Time Altitude Azimuth Distance (km) Brightness Sun altitude
Rises 05:49:23 0° 15° (NNE) 3,251 6.6 -14.7°
Reaches altitude 10° 05:53:03 10° 42° (NE) 2,320 6.2 -14.4°
Maximum altitude 05:55:28 13° 70° (ENE) 2,096 6.5 -14.2°
Drops below altitude 10° 05:57:52 10° 99° (E) 2,313 6.8 -13.9°
Sets 06:01:31 0° 126° (SE) 3,234 7.0 -13.6°
